CZ-4C DEB, 40113

Orbit data source: Space-Track

CZ-4C DEB, 40113 is space debris in LEO originally from a launch on Sat, 09 Aug 2014 UTC launched from the Jiuquan Satellite Launch Center, China (JSC). Debris objects in space refer to the collection of defunct objects orbiting the Earth. Examples of debris include non-operational satellites, rocket bodies, and fragments generated from explosions, collisions, or faulty payload assembly.

Loading next visibility...
Identifier
40113, 2014-047E
Orbit
LEO
Country
Flag of CNCN / PRC
Related business
Manufacturer
CAST
Mission
Spacecraft
Bus & Motor
Unknown
Mass
Unknown
Launch date (UTC)
2014-08-09 (11 years ago)
Launch vehicle
Unknown
Launch site
Jiuquan Satellite Launch Center, China (JSC)
Object type
Payload
Rocket body
Debris
Shape & HBR
Unknown shape, 3.4 m
Radar Cross Section
Large (>1 m²)

Expand to show TLE details & history
Last TLE update: 14 hours ago

TLE from 14 hours ago
0 CZ-4C DEB
1 40113U 14047E   25341.26781562  .00000161  00000-0  28101-3 0  9990
2 40113  63.3787 174.5047 0376029  14.6529 346.5047 13.44659111556153
Epoch: 2025-12-07T06:25Z
TLE epoch observation values (Epoch: 2025-12-07T06:25:39.269Z)
Latitude
0.00002°
Longitude
1.80744°
Altitude
821.179 km
Speed
7.577 km/s
True Right ascension
11h 38m 01s
True Declination
0° 00' 00"
Sunlit
Object was in daylight at epoch
Visualization orbit readout
Latitude
Unknown
Longitude
Unknown
Altitude
Unknown
Speed
Unknown
Apparent Right ascension
Unknown
Apparent Declination
Unknown
Sunlit
N/A
Visualization observer readout
Local Sidereal Time
18:07:47
Azimuth
Unknown
Elevation
Unknown
Doppler factor
Unknown
Orbital elements
Apogee altitude
1,371.658 km
Perigee altitude
809.95 km
Semi-major axis
7,468.941 km
Eccentricity
0.0376
Inclination
63.3787°
RAAN
174.5047°
Arg. of periapsis
14.6529°
True anomaly
345.45113°
Mean anomaly
346.5047°
Eccentric anomaly
345.98286°
Mean motion
3.36244 °/min
Orbital period
107.07 mins
BSTAR
0.00028101
Loading maneuver chart data...
Computing Atmospheric mass density...
Loading historical data...
Loading historical data...
Loading historical data...
Loading historical data...
Loading historical data...
Loading historical data...
Loading historical data...

Documentation

Showing up to 5 results
|